sat.trackr.live / text

‹ back to catalog

STARLINK-37283

NORAD 68568 · 2026-070AC

PAYLOAD ACTIVE UNKNOWN

§ Identity

Operator
Country
US
Launch date
2026-04-02
Launch site
AFETR
Launch vehicle
Mass (kg)
RCS (m²)

Purposes: comms

External: N2YO · Heavens-Above · Gunter

§ Orbital elements

Epoch: 2026-05-24T21:26:11.997888Z

Period
93.85 min
Inclination
53.1601°
Eccentricity
0.0001073
Mean motion
15.34408382 rev/d
Perigee alt
461.9 km
Apogee alt
463.4 km
Semi-major
6,840.8 km
B*
6.8482e-4
RAAN
8.5003°
Arg perigee
79.3471°
Mean anomaly
280.7652°
Rev number
822

§ Raw data

STARLINK-372831 68568U 26070AC  26144.89319442  .00022838  00000+0  68482-3 0  99982 68568  53.1601   8.5003 0001073  79.3471 280.7652 15.34408382  8229

JSON: /api/v1/satellites/68568 · /tle

For live sub-satellite position, see the globe view (requires WebGL).

§ Visibility from observer

Set your observer location to see the next 7 days of passes ≥ 10°. The values pass through the URL so the page stays shareable.

No JS? Fill the form by hand. The geolocation button needs JavaScript.